Cotulla, TX

7:14 PM CST on February 25, 2017 (GMT -0600)
Cotulla-La Salle County

Weather History for KCOT - May, 2013

Change the Weather History Date:

Saturday, May 11, 2013

  Actual Average Record
Temperature  
Mean Temperature 76 °F -  
Max Temperature 88 °F 89 °F 100 °F (2000)
Min Temperature 64 °F 66 °F 57 °F (1997)
Cooling Degree Days 10    
Growing Degree Days 26 (Base 50)    
Moisture  
Dew Point 61 °F    
Average Humidity 69    
Maximum Humidity 94    
Minimum Humidity 36    
Precipitation  
Precipitation 0.09 in - - ()
Sea Level Pressure  
Sea Level Pressure 30.04 in    
Wind  
Wind Speed 8 mph (NNE)    
Max Wind Speed 20 mph    
Max Gust Speed 31 mph    
Visibility 10 miles    
Events Rain , Thunderstorm    
Averages and records for this station are not official NWS values.
T = Trace of Precipitation, MM = Missing Value Source: NWS Daily Summary

Daily Weather History Graph

Daily Weather History Graph

Search for Another Location

Airport or City:

Trip Planner

Search our weather history database for the weather conditions in past years. The results will help you decide how hot, cold, wet, or windy it might be!

Date:

Astronomy

May. 11, 2013 Rise Set
Actual Time 6:48 AM CDT 8:18 PM CDT
Civil Twilight 6:23 AM CDT 8:43 PM CDT
Nautical Twilight 5:52 AM CDT 9:14 PM CDT
Astronomical Twilight 5:21 AM CDT 9:46 PM CDT
Moon 8:00 AM CDT (5/11) 9:56 PM CDT (5/11)
Length of Visible Light 14h 20m
Length of Day
13h 29m
Waxing Crescent, 3% of the Moon is Illuminated
May 11
Waxing Crescent
May 17
First Quarter
May 24
Full
May 31
Last Quarter
Jun 8
New

Hourly Weather History & Observations

Time (CDT) Temp. Heat Index Dew Point Humidity Pressure Visibility Wind Dir Wind Speed Gust Speed Precip Events Conditions
12:26 AM 71.6 °F - 62.6 °F 73% 30.03 in 10.0 mi Variable 5.8 mph - 0.00 in Rain , Thunderstorm Light Thunderstorms and Rain
12:44 AM 69.8 °F - 64.4 °F 83% 30.06 in - East 4.6 mph - 0.04 in Rain , Thunderstorm Heavy Thunderstorms and Rain
12:53 AM 69.1 °F - 66.0 °F 90% 30.02 in 8.0 mi East 8.1 mph - 0.05 in Rain , Thunderstorm Light Rain
1:06 AM 69.8 °F - 64.4 °F 83% 30.04 in 10.0 mi ENE 6.9 mph - 0.01 in Rain Light Rain
1:53 AM 68.0 °F - 64.9 °F 90% 30.03 in 10.0 mi NNE 4.6 mph - 0.01 in   Mostly Cloudy
2:53 AM 66.9 °F - 64.9 °F 93% 29.99 in 10.0 mi NE 5.8 mph - 0.00 in   Scattered Clouds
3:53 AM 66.9 °F - 64.9 °F 93% 30.02 in 10.0 mi NNE 3.5 mph - N/A   Partly Cloudy
4:30 AM 66.2 °F - 64.4 °F 94% 30.07 in 10.0 mi North 5.8 mph - N/A   Mostly Cloudy
4:53 AM 66.9 °F - 64.0 °F 90% 30.03 in 10.0 mi North 6.9 mph - N/A   Overcast
5:09 AM 66.2 °F - 64.4 °F 94% 30.04 in 10.0 mi North 9.2 mph - N/A   Scattered Clouds
5:53 AM 64.9 °F - 63.0 °F 93% 29.99 in 10.0 mi NNE 4.6 mph - N/A   Clear
6:53 AM 64.0 °F - 62.1 °F 93% 30.01 in 10.0 mi NNW 11.5 mph - N/A   Clear
7:53 AM 66.0 °F - 62.1 °F 87% 30.04 in 10.0 mi NNW 11.5 mph - N/A   Clear
8:53 AM 68.0 °F - 61.0 °F 78% 30.07 in 10.0 mi North 9.2 mph - N/A   Clear
9:53 AM 72.0 °F - 62.1 °F 71% 30.06 in 10.0 mi NNE 9.2 mph - N/A   Clear
10:53 AM 73.9 °F - 61.0 °F 64% 30.06 in 10.0 mi NE 6.9 mph - N/A   Clear
11:53 AM 79.0 °F - 62.1 °F 56% 30.06 in 10.0 mi East 8.1 mph - N/A   Partly Cloudy
12:53 PM 82.9 °F 82.8 °F 59.0 °F 44% 30.06 in 10.0 mi NE 6.9 mph - N/A   Mostly Cloudy
1:53 PM 84.0 °F 83.5 °F 57.9 °F 41% 30.05 in 10.0 mi ENE 9.2 mph - N/A   Mostly Cloudy
2:53 PM 87.1 °F 86.1 °F 57.9 °F 37% 30.03 in 10.0 mi NNE 10.4 mph 18.4 mph N/A   Scattered Clouds
3:53 PM 86.0 °F 84.9 °F 57.0 °F 37% 30.00 in 10.0 mi NE 8.1 mph 19.6 mph N/A   Scattered Clouds
4:38 PM 86.0 °F 84.9 °F 57.2 °F 37% 30.01 in 10.0 mi ENE 11.5 mph 16.1 mph N/A   Mostly Cloudy
4:53 PM 87.1 °F 85.9 °F 57.0 °F 36% 29.99 in 10.0 mi ENE 11.5 mph 21.9 mph N/A   Scattered Clouds
5:53 PM 84.9 °F 84.2 °F 57.9 °F 40% 29.99 in 10.0 mi ENE 11.5 mph 17.3 mph N/A   Scattered Clouds
6:53 PM 84.0 °F 83.0 °F 55.9 °F 38% 29.99 in 10.0 mi ENE 13.8 mph 21.9 mph N/A   Partly Cloudy
7:53 PM 82.0 °F 81.6 °F 55.9 °F 41% 30.01 in 10.0 mi NE 11.5 mph 18.4 mph N/A   Clear
8:53 PM 79.0 °F - 57.0 °F 47% 30.04 in 10.0 mi ENE 11.5 mph - N/A   Mostly Cloudy
9:51 PM 78.8 °F - 57.2 °F 47% 30.13 in 10.0 mi NNW 19.6 mph 31.1 mph N/A Thunderstorm Overcast
9:53 PM 75.9 °F - 59.0 °F 56% 30.11 in 10.0 mi North 18.4 mph 31.1 mph 0.00 in Rain , Thunderstorm Light Rain
10:29 PM 69.8 °F - 64.4 °F 83% 30.14 in 10.0 mi North 11.5 mph - 0.01 in Rain Light Rain
10:53 PM 68.0 °F - 64.9 °F 90% 30.13 in 10.0 mi NNW 4.6 mph - 0.02 in Rain Light Rain
11:53 PM 68.0 °F - 66.0 °F 93% 30.14 in 9.0 mi NNW 8.1 mph - 0.01 in Rain Light Rain